星链-36629(STARLINK-36629)

导读

STARLINK-36629是美国SpaceX星链星座的一颗卫星,于2026年1月29日发射升空。星链计划旨在构建全球卫星互联网星座,为全球偏远地区、海洋航线等提供高速低延迟宽带服务。该卫星延续了星链批量部署的模式,进一步扩大了低轨卫星星座规模,助力实现全球覆盖的卫星互联网布局。

基本信息
目录编号:
67596
目录名称:
STARLINK-36629
国际标识:
2026-018H
轨道中心:
EARTH
卫星名称:
星链-36629
卫星全名:
星链-36629(STARLINK-36629)
卫星状态:
在轨 (已飞行135 天)
发射日期:
2026-01-29 UTC
国别 :
美国 (US)
星等 :
--
轨道信息
数据来源 国际轨道数据 AOE轨道数据
星历时间 2026-06-12T12:16:49+0800
23小时前
查看轨道信息
2026-06-12T00:00:00+0800
1天前
查看轨道信息
半长轴 6843.671km 6843.726km
偏心率 0.0000889 0.0000768
轨道倾角 97.285° 97.287°
近地点辐角 104.222° 89.835°
升交点赤经 228.031° 227.525°
平近点角 255.913° 327.462°
近地点 464.925km 465.063km
远地点 466.143km 466.115km
周期 93.906分钟 93.907分钟
每日圈数 15.334481 15.334298
详细信息
固有亮度:
5
最大亮度:
2.5
卫星平台:
Starlink V1.0
覆盖范围:
全球
运营商:
太空探索技术公司
运营商所在国:
美国
制造商(研发单位):
太空探索技术公司
制造商所在国:
美国
使用方式:
暂无
卫星简介
Starlink 计划是 SpaceX 推出的全球卫星互联网项目,通过发射低轨道卫星,为全球尤其是偏远地区提供高速、低延迟的互联网服务。自 2019 年起,Starlink 已部署数千颗卫星,旨在缩小全球数字鸿沟,推动互联网普及。该项目还为军事、航空等行业提供通信支持,带来广泛经济效益。
2D轨道图
3D轨道图
轨道高度分析图
轨道倾角分析图
轨道综合分析图
查看轨道综合分析图